TimeCST,TemperatureF,Dew PointF,Humidity,Sea Level PressureIn,VisibilityMPH,Wind Direction,Wind SpeedMPH,Gust SpeedMPH,PrecipitationIn,Events,Conditions,WindDirDegrees,DateUTC
12:52 AM,36.0,32.0,86,30.01,10.0,East,6.9,-,N/A,,Overcast,100,2012-12-09 06:52:00
1:52 AM,37.0,33.1,86,29.98,10.0,East,9.2,-,N/A,,Overcast,90,2012-12-09 07:52:00
2:52 AM,37.0,33.1,86,29.96,10.0,East,8.1,-,N/A,,Overcast,100,2012-12-09 08:52:00
3:52 AM,37.9,33.1,83,29.95,10.0,ESE,8.1,-,N/A,,Overcast,110,2012-12-09 09:52:00
4:52 AM,37.9,33.1,83,29.96,10.0,East,4.6,-,N/A,,Overcast,80,2012-12-09 10:52:00
5:52 AM,37.9,33.1,83,29.94,10.0,ENE,5.8,-,N/A,,Overcast,60,2012-12-09 11:52:00
6:52 AM,37.0,34.0,89,29.92,3.0,ENE,8.1,-,0.00,,Overcast,70,2012-12-09 12:52:00
7:52 AM,36.0,34.0,93,29.90,3.0,ENE,10.4,-,0.01,,Overcast,60,2012-12-09 13:52:00
8:02 AM,35.6,33.8,93,29.88,2.5,ENE,9.2,-,N/A,,Overcast,60,2012-12-09 14:02:00
8:26 AM,35.6,33.8,93,29.88,1.8,ENE,8.1,-,N/A,,Overcast,60,2012-12-09 14:26:00
8:52 AM,36.0,35.1,97,29.91,1.5,ENE,4.6,-,0.03,Rain,Light Rain,70,2012-12-09 14:52:00
9:40 AM,35.6,35.6,100,29.89,2.5,East,4.6,-,0.02,,Overcast,80,2012-12-09 15:40:00
9:49 AM,35.6,35.6,100,29.89,3.0,East,4.6,-,0.02,,Overcast,90,2012-12-09 15:49:00
9:52 AM,36.0,35.1,97,29.90,3.0,Variable,4.6,-,0.02,,Overcast,0,2012-12-09 15:52:00
10:00 AM,35.6,35.6,100,29.87,1.8,East,6.9,-,N/A,,Overcast,90,2012-12-09 16:00:00
10:17 AM,35.6,35.6,100,29.88,1.5,ENE,3.5,-,0.01,,Overcast,70,2012-12-09 16:17:00
10:29 AM,35.6,35.6,100,29.88,2.5,East,6.9,-,0.01,,Overcast,100,2012-12-09 16:29:00
10:40 AM,37.4,35.6,93,29.88,3.0,Variable,3.5,-,0.01,,Overcast,0,2012-12-09 16:40:00
10:48 AM,37.4,35.6,93,29.86,4.0,East,5.8,-,0.01,,Overcast,90,2012-12-09 16:48:00
10:52 AM,37.0,35.1,93,29.88,5.0,East,4.6,-,0.01,,Overcast,90,2012-12-09 16:52:00
11:17 AM,37.4,35.6,93,29.84,2.0,ENE,6.9,-,N/A,,Overcast,60,2012-12-09 17:17:00
12:52 PM,37.0,35.1,93,29.83,4.0,Calm,Calm,-,N/A,,Overcast,0,2012-12-09 18:52:00
1:52 PM,37.9,36.0,93,29.83,6.0,Calm,Calm,-,N/A,,Overcast,0,2012-12-09 19:52:00
2:27 PM,37.4,37.4,100,29.80,2.5,West,5.8,-,N/A,,Overcast,260,2012-12-09 20:27:00
2:40 PM,37.4,35.6,93,29.78,4.0,West,3.5,-,N/A,,Overcast,270,2012-12-09 20:40:00
2:52 PM,37.9,37.0,97,29.81,4.0,West,5.8,-,N/A,,Overcast,270,2012-12-09 20:52:00
3:35 PM,39.2,37.4,93,29.81,6.0,West,8.1,-,N/A,,Overcast,270,2012-12-09 21:35:00
3:52 PM,39.0,37.0,93,29.83,8.0,West,8.1,-,N/A,,Overcast,270,2012-12-09 21:52:00
4:52 PM,39.0,35.1,86,29.83,10.0,West,12.7,-,N/A,,Overcast,280,2012-12-09 22:52:00
5:22 PM,37.4,35.6,93,29.81,10.0,West,16.1,-,N/A,,Overcast,270,2012-12-09 23:22:00
5:31 PM,37.4,33.8,87,29.82,10.0,West,18.4,26.5,N/A,,Overcast,280,2012-12-09 23:31:00
5:39 PM,37.4,33.8,87,29.82,9.0,West,17.3,-,N/A,,Overcast,270,2012-12-09 23:39:00
5:52 PM,35.1,33.1,92,29.84,7.0,West,19.6,26.5,N/A,,Overcast,280,2012-12-09 23:52:00
6:34 PM,32.0,28.4,87,29.84,10.0,West,21.9,29.9,N/A,,Overcast,280,2012-12-10 00:34:00
6:49 PM,30.2,26.6,86,29.84,10.0,West,23.0,29.9,N/A,,Overcast,280,2012-12-10 00:49:00
6:52 PM,30.9,26.1,82,29.86,10.0,West,18.4,29.9,N/A,,Overcast,280,2012-12-10 00:52:00
7:52 PM,28.9,23.0,78,29.88,10.0,WNW,18.4,28.8,N/A,,Overcast,290,2012-12-10 01:52:00
8:52 PM,27.0,21.0,78,29.88,10.0,West,21.9,28.8,N/A,,Overcast,280,2012-12-10 02:52:00
9:52 PM,25.0,19.9,81,29.90,10.0,West,20.7,28.8,N/A,,Overcast,270,2012-12-10 03:52:00
10:52 PM,25.0,19.0,78,29.90,10.0,West,19.6,27.6,N/A,,Overcast,270,2012-12-10 04:52:00
11:52 PM,25.0,19.0,78,29.89,10.0,West,24.2,31.1,N/A,,Overcast,270,2012-12-10 05:52:00